View from above orbital plane
|
View from above satellite
|
Ground track
|
The orbit data is extracted from the following two-line orbital elements,
1 15772U 85042D 21062.57098711 -.00000025 00000-0 10316-4 0 9993
2 15772 71.1108 355.6957 0033132 96.2827 75.7290 14.21286462854023
Epoch (UTC): | 03 March 2021 13:42:13 |
Eccentricity: | 0.0033132 |
inclination: | 71.1108° |
perigee height: | 797 km |
apogee height: | 845 km |
right ascension of ascending node: | 355.6957° |
argument of perigee: | 96.2827° |
revolutions per day: | 14.21286462 |
mean anomaly at epoch: | 75.7290° |
orbit number at epoch: | 85402 |
The dashed part of the orbit path shows where the satellite is in the earth's shadow,
|
|